Weather History for Homestead AFB, FL

Change the Weather History Date:

Saturday, May 3, 2014

  Actual Average Record
Temperature  
Mean Temperature 80 °F -  
Max Temperature 89 °F 85 °F 93 °F (1953)
Min Temperature 72 °F 65 °F 49 °F (1941)
Cooling Degree Days 16    
Growing Degree Days 30 (Base 50)    
Moisture  
Dew Point 68 °F    
Average Humidity 70    
Maximum Humidity 83    
Minimum Humidity 55    
Precipitation  
Precipitation 0.49 in - - ()
Sea Level Pressure  
Sea Level Pressure 29.96 in    
Wind  
Wind Speed 6 mph (WSW)    
Max Wind Speed 21 mph    
Max Gust Speed 25 mph    
Visibility 10 miles    
Events Rain , Thunderstorm    
Averages and records for this station are not official NWS values.
T = Trace of Precipitation, MM = Missing Value Source: NWS Daily Summary

Daily Weather History Graph

Daily Weather History Graph

Search for Another Location

Airport:

Trip Planner

Search our weather history database for the weather conditions in past years. The results will help you decide how hot, cold, wet, or windy it might be!

Date:

Astronomy

May. 03, 2014 Rise Set
Actual Time 6:43 AM EDT 7:53 PM EDT
Civil Twilight 6:19 AM EDT 8:17 PM EDT
Nautical Twilight 5:50 AM EDT 8:46 PM EDT
Astronomical Twilight 5:21 AM EDT 9:16 PM EDT
Moon 10:17 AM EDT (5/3) 11:55 PM EDT (5/3)
Length of Visible Light 13h 58m
Length of Day
13h 09m
Waxing Crescent, 19% of the Moon is Illuminated
May 3
Waxing Crescent
May 6
First Quarter
May 14
Full
May 21
Last Quarter
May 28
New

Hourly Weather History & Observations

Time (EDT) Temp. Heat Index Dew Point Humidity Pressure Visibility Wind Dir Wind Speed Gust Speed Precip Events Conditions
12:58 AM 76.1 °F - 67.8 °F 75% 29.97 in 10.0 mi North 5.8 mph - N/A   Partly Cloudy
1:53 AM 75.2 °F - 68.0 °F 78% 29.95 in 10.0 mi North 3.5 mph - N/A   Mostly Cloudy
1:58 AM 75.9 °F - 67.1 °F 74% 29.95 in 10.0 mi NNE 3.5 mph - N/A   Scattered Clouds
2:58 AM 75.6 °F - 67.5 °F 76% 29.94 in 10.0 mi NW 1.2 mph - N/A   Scattered Clouds
3:58 AM 74.7 °F - 66.9 °F 77% 29.94 in 10.0 mi ENE 2.3 mph - N/A   Clear
4:52 AM 75.2 °F - 66.2 °F 73% 29.94 in 10.0 mi North 2.3 mph - N/A Rain Light Rain
4:58 AM 75.7 °F - 66.7 °F 74% 29.95 in 10.0 mi North 4.6 mph - 0.00 in Rain Light Rain
5:58 AM 75.2 °F - 66.2 °F 73% 29.96 in 7.0 mi SSW 2.3 mph - N/A Rain Rain
6:58 AM 73.9 °F - 67.5 °F 80% 29.96 in 7.0 mi South 9.2 mph - 0.19 in Rain Light Rain
7:58 AM 72.9 °F - 66.6 °F 81% 29.95 in 10.0 mi South 5.8 mph - 0.14 in Rain Light Rain
8:00 AM 73.4 °F - 60.8 °F 65% 29.94 in 10.0 mi South 4.6 mph - N/A   Partly Cloudy
8:58 AM 74.8 °F - 67.8 °F 79% 29.95 in 10.0 mi SW 1.2 mph - 0.00 in   Clear
9:58 AM 78.1 °F - 66.4 °F 67% 29.97 in 10.0 mi SSW 4.6 mph - N/A   Clear
10:58 AM 84.7 °F 87.6 °F 67.3 °F 56% 29.98 in 10.0 mi South 9.2 mph - N/A   Clear
11:58 AM 87.1 °F 92.4 °F 70.9 °F 58% 29.99 in 10.0 mi SSW 8.1 mph - N/A   Scattered Clouds
12:58 PM 88.2 °F 93.3 °F 70.2 °F 55% 29.98 in 10.0 mi SSW 9.2 mph - N/A   Scattered Clouds
1:58 PM 88.3 °F 94.1 °F 70.9 °F 56% 29.96 in 10.0 mi SSW 10.4 mph 19.6 mph N/A   Scattered Clouds
2:58 PM 89.1 °F 96.5 °F 72.3 °F 58% 29.95 in 10.0 mi SSW 13.8 mph 19.6 mph N/A   Partly Cloudy
3:58 PM 88.0 °F 94.2 °F 71.4 °F 58% 29.95 in 10.0 mi SSW 16.1 mph - N/A   Partly Cloudy
4:35 PM 87.8 °F 92.6 °F 69.8 °F 55% 29.93 in 10.0 mi West 20.7 mph 25.3 mph N/A   Scattered Clouds
4:58 PM 84.9 °F 90.1 °F 71.2 °F 63% 29.95 in 10.0 mi West 10.4 mph - N/A   Partly Cloudy
5:44 PM 82.4 °F 85.4 °F 68.0 °F 62% 29.94 in 10.0 mi WNW 10.4 mph - N/A Rain , Thunderstorm Light Thunderstorms and Rain
5:58 PM 80.6 °F 83.9 °F 70.0 °F 70% 29.97 in 10.0 mi West 12.7 mph - 0.00 in Rain , Thunderstorm Light Thunderstorms and Rain
6:16 PM 75.2 °F - 69.8 °F 83% 29.96 in 4.0 mi West 16.1 mph - N/A Rain Light Rain
6:34 PM 75.2 °F - 68.0 °F 78% 29.95 in 10.0 mi NW 9.2 mph - N/A   Scattered Clouds
6:58 PM 75.4 °F - 68.9 °F 80% 29.96 in 10.0 mi WNW 3.5 mph - 0.16 in   Mostly Cloudy
7:58 PM 76.3 °F - 68.5 °F 77% 29.98 in 10.0 mi WNW 4.6 mph - N/A   Scattered Clouds
8:58 PM 75.6 °F - 66.9 °F 74% 29.99 in 10.0 mi Calm Calm - N/A   Mostly Cloudy
9:58 PM 75.9 °F - 67.3 °F 74% 30.00 in 10.0 mi North 1.2 mph - N/A   Partly Cloudy
10:58 PM 75.0 °F - 67.6 °F 78% 30.03 in 10.0 mi SW 2.3 mph - N/A   Mostly Cloudy
11:58 PM 74.3 °F - 67.1 °F 78% 30.03 in 10.0 mi South 2.3 mph - N/A   Mostly Cloudy